CZ-6A DEB, 60875

Orbit data source: Space-Track

CZ-6A DEB, 60875 is space debris in LEO originally from a launch on Tue, 06 Aug 2024 UTC launched from the Taiyaun Space Center, China (TSC). Debris objects in space refer to the collection of defunct objects orbiting the Earth. Examples of debris include non-operational satellites, rocket bodies, and fragments generated from explosions, collisions, or faulty payload assembly.

Loading next visibility...
Identifier
60875, 2024-140KE
Orbit
LEO
Country
Flag of CNCN / PRC
Related business
Manufacturer
SAST
Mission
Spacecraft
Bus & Motor
Unknown
Mass
Unknown
Launch date (UTC)
2024-08-06 (2 years ago)
Launch vehicle
Unknown
Launch site
Taiyaun Space Center, China (TSC)
Object type
Payload
Rocket body
Debris
Shape & HBR
Unknown shape, 0.1 m
Radar Cross Section
Medium (>0.1 m² and <1 m²)

Expand to show TLE details & history
Last TLE update: 15 hours ago

TLE from 15 hours ago
0 CZ-6A DEB
1 60875U 24140KE  26171.22542440  .00496653  00000-0  68226-2 0  9996
2 60875  88.8474 253.5679 0008410 120.2573 239.9525 15.55610926100384
Epoch: 2026-06-20T05:24Z
TLE epoch observation values (Epoch: 2026-06-20T05:24:36.668Z)
Latitude
-0.00002°
Longitude
-96.02798°
Altitude
406.48 km
Speed
7.665 km/s
True Right ascension
16h 54m 16s
True Declination
0° 00' 00"
Sunlit
Object was in full shadow at epoch
Visualization orbit readout
Latitude
Unknown
Longitude
Unknown
Altitude
Unknown
Speed
Unknown
Apparent Right ascension
Unknown
Apparent Declination
Unknown
Sunlit
N/A
Visualization observer readout
Local Sidereal Time
07:21:30
Azimuth
Unknown
Elevation
Unknown
Doppler factor
Unknown
Orbital elements
Apogee altitude
402.836 km
Perigee altitude
391.44 km
Semi-major axis
6,775.275 km
Eccentricity
0.00084
Inclination
88.8474°
RAAN
253.5679°
Arg. of periapsis
120.2573°
True anomaly
239.86912°
Mean anomaly
239.9525°
Eccentric anomaly
239.91081°
Mean motion
3.89182 °/min
Orbital period
92.5 mins
BSTAR
0.0068226
Loading maneuver chart data...
Computing Atmospheric mass density...
Loading historical data...
Loading historical data...
Loading historical data...
Loading historical data...
Loading historical data...
Loading historical data...
Loading historical data...

Documentation

Showing up to 5 results
|